Home   Weather   Budapest   Past weeks
Flag for Hungary

Past Weather in Budapest, Hungary — Yesterday and Last 2 Weeks

Now
55 °F

Clear.


Feels Like: 55 °F
Forecast: 80 / 60 °F
Wind: 1 mph from North

Location: Ferenc Liszt International Airport

Current Time: Jul 16, 2019 at 4:44:10 am

Latest Report: Jul 16, 2019 at 4:00 am


Visibility: 10 mi

Pressure: 29.92 "Hg

Humidity: 77%

Dew Point: 48 °F

Location of BudapestLocation

Past Weather in Budapest — Graph

°F

Budapest Temperature Yesterday

Maximum temperature yesterday: 77 °F (at 3:30 pm)
Minimum temperature yesterday: 55 °F (at 5:00 am)
Average temperature yesterday: 66 °F

High & Low Weather Summary for the Past Weeks

 TemperatureHumidityPressure
High97 °F (Jul 1, 5:30 pm)100% (Jul 1, 5:30 am)30.15 "Hg (Jul 1, 5:30 am)
Low46 °F (Jul 11, 5:30 am)27% (Jul 1, 5:30 pm)29.71 "Hg (Jul 7, 2:30 pm)
Average69 °F63%29.93 "Hg
* Reported Jul 1 3:00 am — Jul 16 3:30 am, Budapest. Weather by CustomWeather, © 2019

Note: Actual official high and low records may vary slightly from our data, if they occured in-between our weather recording intervals... More about our weather records

Advertising

Budapest Weather History for the Previous 24 Hours

Scroll right to see more
 ConditionsComfort  
Time TempWeatherWind HumidityBarometerVisibility
3:30 am
Tue, Jul 16
57 °FPassing clouds.5 mph72%29.92 "HgN/A
3:00 am55 °FClear.1 mph77%29.92 "Hg10 mi
2:30 am54 °FClear.1 mph88%29.92 "Hg10 mi
2:00 am55 °FClear.1 mph82%29.92 "Hg10 mi
1:30 am55 °FClear.2 mph82%29.92 "Hg10 mi
1:00 am57 °FClear.2 mph82%29.92 "Hg10 mi
12:30 am55 °FClear.1 mph88%29.92 "Hg10 mi
12:00 am57 °FClear.3 mph88%29.92 "Hg10 mi
11:30 pm
Mon, Jul 15
57 °FClear.No wind88%29.92 "Hg10 mi
11:00 pm57 °FClear.2 mph88%29.89 "Hg10 mi
10:30 pm59 °FClear.2 mph88%29.89 "Hg10 mi
10:00 pm63 °FClear.2 mph77%29.89 "Hg10 mi
9:30 pm63 °FClear.1 mph73%29.89 "Hg10 mi
9:00 pm66 °FClear.1 mph60%29.89 "Hg10 mi
8:30 pm70 °FSunny.2 mph53%29.86 "Hg10 mi
8:00 pm72 °FSunny.5 mph47%29.86 "Hg10 mi
7:30 pm75 °FSunny.3 mph39%29.86 "Hg10 mi
7:00 pm75 °FSunny.5 mph36%29.86 "Hg10 mi
6:30 pm75 °FPassing clouds.5 mph36%29.86 "HgN/A
6:00 pm77 °FSunny.2 mph39%29.86 "Hg10 mi
5:30 pm75 °FPassing clouds.6 mph34%29.86 "HgN/A
5:00 pm75 °FPassing clouds.7 mph36%29.89 "HgN/A
4:30 pm77 °FPassing clouds.9 mph36%29.89 "HgN/A
4:00 pm77 °FSunny.9 mph34%29.89 "Hg10 mi
3:30 pm77 °FPassing clouds.6 mph34%29.89 "HgN/A
3:00 pm75 °FSunny.5 mph36%29.89 "Hg10 mi
2:30 pm73 °FPassing clouds.8 mph44%29.89 "HgN/A
2:00 pm73 °FPassing clouds.8 mph33%29.89 "HgN/A
1:30 pm75 °FSunny.3 mph34%29.89 "Hg10 mi
1:00 pm73 °FPassing clouds.7 mph38%29.89 "HgN/A
12:30 pm73 °FSunny.3 mph33%29.92 "Hg10 mi
12:00 pm72 °FPassing clouds.6 mph44%29.92 "HgN/A
11:30 am73 °FSunny.6 mph44%29.89 "Hg10 mi
11:00 am73 °FPassing clouds.7 mph44%29.89 "HgN/A
10:30 am72 °FPassing clouds.9 mph38%29.92 "HgN/A
10:00 am72 °FPassing clouds.9 mph50%29.92 "HgN/A
9:30 am68 °FPassing clouds.6 mph60%29.92 "HgN/A
9:00 am66 °FScattered clouds.6 mph68%29.92 "HgN/A
8:30 am66 °FPassing clouds.6 mph68%29.92 "HgN/A
8:00 am63 °FPassing clouds.5 mph83%29.89 "HgN/A
7:30 am63 °FPassing clouds.5 mph94%29.89 "HgN/A
7:00 am59 °FSunny.5 mph100%29.89 "Hg10 mi
6:30 am57 °FSunny.5 mph100%29.89 "Hg10 mi
6:00 am55 °FSunny.6 mph100%29.89 "Hg10 mi
5:30 am55 °FSunny.6 mph100%29.89 "Hg10 mi
5:00 am55 °FPassing clouds.5 mph100%29.89 "HgN/A
4:30 am57 °FClear.5 mph100%29.89 "Hg10 mi
4:00 am59 °FClear.3 mph94%29.89 "Hg10 mi
Weather by CustomWeather, © 2019

See weather overview

LIVE PARTIAL LUNAR ECLIPSE – Watch the eclipse as it happens